Hourly Data Report for September 23, 2021

TORONTO CITY
ONTARIO
Current Station Operator: ECCC - MSC

43°40'00.000" N
79°24'00.000" W
112.50 m
6158355
71508
XTO

Download Data

Hourly Data (September 2021)
Hourly Data Report for September 23, 2021
TIME
LST
Temp Definition
°C
Dew Point Definition
°C
Rel Hum Definition
%
Precip. Amount Definition
mm

Wind Dir Definition
10's deg

Wind Spd Definition
km/h
Visibility Definition
km
Stn Press Definition
kPa
Hmdx Definition


Wind Chill Definition


Weather Definition


00:00 13.3 12.2 93 2.0       99.20     LegendNANA
01:00 13.2 12.1 93 0.5       99.24     LegendNANA
02:00 13.8 12.7 93 0.1       99.29     LegendNANA
03:00 13.7 12.8 94 0.4       99.27     LegendNANA
04:00 13.9 13.1 95 0.1       99.32     LegendNANA
05:00 14.2 13.3 95 0.2       99.35     LegendNANA
06:00 14.7 14.0 96 1.5       99.31     LegendNANA
07:00 16.1 15.6 97 0.1       99.35     LegendNANA
08:00 17.1 15.9 93 0.0       99.35     LegendNANA
09:00 17.3 15.0 86 0.0       99.39     LegendNANA
10:00 17.9 13.5 76 0.0       99.40     LegendNANA
11:00 18.2 13.0 72 0.0       99.41     LegendNANA
12:00 18.6 12.5 67 0.0       99.43     LegendNANA
13:00 18.0 11.5 66 0.0       99.45     LegendNANA
14:00 18.1 10.1 60 0.0       99.47     LegendNANA
15:00 17.7 9.8 60 0.0       99.46     LegendNANA
16:00 17.1 9.4 61 0.0       99.51     LegendNANA
17:00 16.8 9.4 62 0.0       99.54     LegendNANA
18:00 15.1 10.2 73 0.0       99.62     LegendNANA
19:00 15.1 10.3 73 0.0       99.67     LegendNANA
20:00 14.5 10.4 76 0.0       99.69     LegendNANA
21:00 14.3 10.5 78 0.5       99.66     LegendNANA
22:00 14.1 10.5 79 0.0       99.62     LegendNANA
23:00 14.5 10.9 79 0.0       99.60     LegendNANA

Notes on Data Quality.

Legend

  • E = Estimated
  • M = Missing
  • NA = Not Available*
  • [empty] = Indicates an unobserved value
Date modified: